カタログに戻る

COSMOS 90

運用中軍事LEO
NORAD 1588·PAYLOAD·🇷🇺 Russia

打ち上げ Sep 18, 1965 から Baikonur Cosmodrome

Loading…

次のパス (今後24時間)

TLE

最新Source: Space-Track

元期: Sep 14, 2026, 08:18 UTC

1 01588U 65073E   26257.34598492 -.00000095  00000-0 -29288-4 0  9998
2 01588  56.0580  38.2211 0154410 195.0598 182.4249 12.34593837750004

AllMySatでCOSMOS 90をリアルタイム追跡

Download on the App Store